| time (UTC) | temp F | wind direction | speed knots | gust knots | rain 1hr in | rain 24hr in | rain mn in | humidity % | barometer mb |
| 20260505010541 | 69 | 164 | 0.0 | 0.0 | 0.00 | 0.00 | 0.00 | 63 | 1001.7 |
| 20260505010038 | 69 | 162 | 0.0 | 0.0 | 0.00 | 0.00 | 0.00 | 62 | 1001.6 |
| 20260505005534 | 69 | 163 | 0.0 | 0.9 | 0.00 | 0.00 | 0.00 | 61 | 1001.5 |
| 20260505005032 | 69 | 162 | 0.9 | 0.9 | 0.00 | 0.00 | 0.00 | 59 | 1001.6 |
| 20260505004529 | 70 | 160 | 0.0 | 0.0 | 0.00 | 0.00 | 0.00 | 59 | 1001.6 |
| 20260505004026 | 70 | 167 | 0.0 | 0.0 | 0.00 | 0.00 | 0.00 | 58 | 1001.6 |
| 20260505003523 | 70 | 164 | 0.0 | 0.0 | 0.00 | 0.00 | 0.00 | 58 | 1001.5 |
| 20260505003020 | 71 | 164 | 0.0 | 0.0 | 0.00 | 0.00 | 0.00 | 58 | 1001.7 |
| 20260505002520 | 72 | 161 | 0.0 | 0.0 | 0.00 | 0.00 | 0.00 | 57 | 1001.8 |
| 20260505002015 | 73 | 158 | 0.0 | 0.0 | 0.00 | 0.00 | 0.00 | 55 | 1001.8 |
| 20260505001511 | 73 | 145 | 2.6 | 3.5 | 0.00 | 0.00 | 0.00 | 55 | 1001.8 |
| 20260505001009 | 73 | 172 | 0.9 | 0.9 | 0.00 | 0.00 | 0.00 | 55 | 1001.9 |
| 20260505000506 | 73 | 158 | 0.0 | 0.0 | 0.00 | 0.00 | 0.00 | 53 | 1002.0 |
| 20260505000003 | 74 | 174 | 1.7 | 6.1 | 0.00 | 0.00 | 0.00 | 51 | 1001.8 |
| 20260504235500 | 73 | 159 | 0.0 | 0.0 | 0.00 | 0.00 | 0.00 | 54 | 1002.1 |
| 20260504234956 | 74 | 159 | 3.5 | 5.2 | 0.00 | 0.00 | 0.00 | 52 | 1002.3 |
| 20260504234454 | 73 | 97 | 2.6 | 5.2 | 0.00 | 0.00 | 0.00 | 52 | 1002.2 |
| 20260504233950 | 74 | 162 | 0.0 | 0.9 | 0.00 | 0.00 | 0.00 | 52 | 1002.0 |
| 20260504233446 | 75 | 129 | 7.8 | 8.7 | 0.00 | 0.00 | 0.00 | 49 | 1002.1 |
| 20260504232943 | 76 | 153 | 3.5 | 3.5 | 0.00 | 0.00 | 0.00 | 50 | 1002.1 |
| 20260504232440 | 76 | 144 | 1.7 | 1.7 | 0.00 | 0.00 | 0.00 | 52 | 1002.0 |
| 20260504231937 | 75 | 154 | 1.7 | 2.6 | 0.00 | 0.00 | 0.00 | 50 | 1002.1 |
| 20260504231433 | 74 | 153 | 1.7 | 2.6 | 0.00 | 0.00 | 0.00 | 57 | 1002.0 |
| 20260504230930 | 76 | 155 | 0.9 | 0.9 | 0.00 | 0.00 | 0.00 | 59 | 1002.0 |
| 20260504230426 | 78 | 160 | 0.0 | 0.0 | 0.00 | 0.00 | 0.00 | 54 | 1002.3 |
| 20260504225926 | 75 | 161 | 0.0 | 0.0 | 0.00 | 0.00 | 0.00 | 58 | 1002.5 |
| 20260504225422 | 73 | 162 | 0.0 | 0.0 | 0.00 | 0.00 | 0.00 | 59 | 1002.4 |
| 20260504224920 | 73 | 160 | 0.0 | 0.0 | 0.00 | 0.00 | 0.00 | 59 | 1002.3 |
| 20260504224416 | 73 | 161 | 0.0 | 0.0 | 0.00 | 0.00 | 0.00 | 58 | 1002.5 |
| 20260504223913 | 74 | 160 | 0.0 | 0.0 | 0.00 | 0.00 | 0.00 | 59 | 1002.6 |
| 20260504223408 | 75 | 137 | 0.0 | 0.0 | 0.00 | 0.00 | 0.00 | 54 | 1002.7 |
| 20260504222905 | 77 | 160 | 0.9 | 1.7 | 0.00 | 0.00 | 0.00 | 52 | 1002.6 |
| 20260504222402 | 77 | 164 | 1.7 | 2.6 | 0.00 | 0.00 | 0.00 | 52 | 1002.4 |
| 20260504221900 | 75 | 161 | 0.0 | 0.0 | 0.00 | 0.00 | 0.00 | 59 | 1002.8 |
| 20260504221356 | 75 | 163 | 0.0 | 0.0 | 0.00 | 0.00 | 0.00 | 56 | 1002.7 |
| 20260504220854 | 75 | 157 | 1.7 | 1.7 | 0.00 | 0.00 | 0.00 | 58 | 1002.8 |
| 20260504220350 | 74 | 157 | 0.0 | 0.0 | 0.00 | 0.00 | 0.00 | 59 | 1002.7 |
| 20260504215847 | 74 | 158 | 0.0 | 0.0 | 0.00 | 0.00 | 0.00 | 59 | 1002.6 |
| 20260504215344 | 74 | 161 | 0.0 | 0.0 | 0.00 | 0.00 | 0.00 | 62 | 1002.9 |
| 20260504214840 | 73 | 157 | 0.9 | 0.9 | 0.00 | 0.00 | 0.00 | 57 | 1003.0 |
| 20260504214337 | 73 | 155 | 0.9 | 0.9 | 0.00 | 0.00 | 0.00 | 60 | 1003.2 |
| 20260504213834 | 73 | 159 | 0.0 | 0.0 | 0.00 | 0.00 | 0.00 | 59 | 1003.3 |
| 20260504213329 | 73 | 157 | 1.7 | 2.6 | 0.00 | 0.00 | 0.00 | 57 | 1003.2 |
| 20260504212827 | 74 | 146 | 1.7 | 3.5 | 0.00 | 0.00 | 0.00 | 59 | 1003.3 |
| 20260504212323 | 75 | 130 | 2.6 | 3.5 | 0.00 | 0.00 | 0.00 | 57 | 1003.3 |
| 20260504211821 | 74 | 137 | 2.6 | 5.2 | 0.00 | 0.00 | 0.00 | 57 | 1003.4 |
| 20260504211317 | 74 | 97 | 4.3 | 5.2 | 0.00 | 0.00 | 0.00 | 61 | 1003.5 |
| 20260504210815 | 73 | 153 | 0.9 | 0.9 | 0.00 | 0.00 | 0.00 | 56 | 1003.4 |
| 20260504210311 | 73 | 150 | 4.3 | 5.2 | 0.00 | 0.00 | 0.00 | 57 | 1003.6 |
| 20260504205809 | 74 | 106 | 1.7 | 3.5 | 0.00 | 0.00 | 0.00 | 59 | 1003.8 |
| 20260504205306 | 73 | 141 | 3.5 | 3.5 | 0.00 | 0.00 | 0.00 | 56 | 1003.8 |
| 20260504204804 | 73 | 150 | 3.5 | 5.2 | 0.00 | 0.00 | 0.00 | 58 | 1003.5 |
| 20260504204302 | 72 | 128 | 1.7 | 5.2 | 0.00 | 0.00 | 0.00 | 60 | 1003.8 |
| 20260504203802 | 72 | 155 | 2.6 | 2.6 | 0.00 | 0.00 | 0.00 | 57 | 1004.1 |
| 20260504203258 | 72 | 157 | 1.7 | 1.7 | 0.00 | 0.00 | 0.00 | 60 | 1004.2 |
| 20260504202758 | 72 | 150 | 4.3 | 7.0 | 0.00 | 0.00 | 0.00 | 57 | 1004.3 |
| 20260504202256 | 75 | 132 | 0.9 | 0.9 | 0.00 | 0.00 | 0.00 | 58 | 1003.8 |
| 20260504201753 | 75 | 128 | 7.8 | 12.2 | 0.00 | 0.00 | 0.00 | 58 | 1004.0 |
| 20260504201250 | 73 | 161 | 1.7 | 1.7 | 0.00 | 0.00 | 0.00 | 59 | 1003.9 |
| 20260504200748 | 73 | 167 | 0.9 | 1.7 | 0.00 | 0.00 | 0.00 | 63 | 1003.8 |
| 20260504200243 | 72 | 134 | 0.9 | 1.7 | 0.00 | 0.00 | 0.00 | 64 | 1004.0 |
| 20260504195740 | 71 | 96 | 4.3 | 6.1 | 0.00 | 0.00 | 0.00 | 62 | 1004.1 |
| 20260504195236 | 71 | 166 | 0.9 | 0.9 | 0.00 | 0.00 | 0.00 | 68 | 1004.3 |
| 20260504194734 | 70 | 154 | 0.9 | 0.9 | 0.00 | 0.00 | 0.00 | 72 | 1004.4 |
| 20260504194229 | 69 | 150 | 0.0 | 0.9 | 0.00 | 0.00 | 0.00 | 75 | 1004.6 |
| 20260504193726 | 67 | 102 | 1.7 | 2.6 | 0.00 | 0.00 | 0.00 | 71 | 1004.6 |
| 20260504193223 | 66 | 158 | 0.0 | 0.0 | 0.00 | 0.00 | 0.00 | 79 | 1004.7 |
| 20260504192722 | 66 | 176 | 0.0 | 0.9 | 0.00 | 0.00 | 0.00 | 75 | 1004.6 |
| 20260504192220 | 65 | 152 | 0.9 | 0.9 | 0.00 | 0.00 | 0.00 | 75 | 1005.3 |
| 20260504191718 | 65 | 158 | 0.0 | 0.0 | 0.00 | 0.00 | 0.00 | 81 | 1005.4 |
| 20260504191215 | 66 | 159 | 0.0 | 0.0 | 0.00 | 0.00 | 0.00 | 76 | 1004.9 |
| 20260504190710 | 66 | 171 | 1.7 | 1.7 | 0.00 | 0.00 | 0.00 | 72 | 1005.5 |
| 20260504190206 | 67 | 147 | 1.7 | 2.6 | 0.00 | 0.00 | 0.00 | 69 | 1005.7 |
| 20260504185703 | 68 | 170 | 3.5 | 5.2 | 0.00 | 0.00 | 0.00 | 66 | 1006.0 |
| 20260504185159 | 68 | 124 | 1.7 | 1.7 | 0.00 | 0.00 | 0.00 | 66 | 1005.6 |
| 20260504184656 | 68 | 147 | 1.7 | 1.7 | 0.00 | 0.00 | 0.00 | 70 | 1005.6 |
| 20260504184151 | 68 | 137 | 3.5 | 3.5 | 0.00 | 0.00 | 0.00 | 66 | 1005.2 |
| 20260504183648 | 68 | 127 | 1.7 | 2.6 | 0.00 | 0.00 | 0.00 | 66 | 1005.2 |
| 20260504183145 | 69 | 129 | 4.3 | 6.1 | 0.00 | 0.00 | 0.00 | 64 | 1005.4 |
| 20260504182643 | 69 | 133 | 3.5 | 5.2 | 0.00 | 0.00 | 0.00 | 63 | 1004.8 |
| 20260504182140 | 69 | 154 | 0.9 | 0.9 | 0.00 | 0.00 | 0.00 | 65 | 1004.9 |
| 20260504181638 | 70 | 129 | 2.6 | 3.5 | 0.00 | 0.00 | 0.00 | 62 | 1004.7 |
| 20260504181135 | 71 | 88 | 3.5 | 6.1 | 0.00 | 0.00 | 0.00 | 63 | 1004.8 |
| 20260504180634 | 71 | 75 | 3.5 | 5.2 | 0.00 | 0.00 | 0.00 | 62 | 1004.6 |
| 20260504180132 | 72 | 159 | 1.7 | 1.7 | 0.00 | 0.00 | 0.00 | 62 | 1004.5 |
| 20260504175629 | 71 | 146 | 2.6 | 3.5 | 0.00 | 0.00 | 0.00 | 69 | 1004.4 |
| 20260504175126 | 71 | 160 | 0.0 | 0.0 | 0.00 | 0.00 | 0.00 | 66 | 1004.5 |
| 20260504174624 | 71 | 167 | 0.9 | 0.9 | 0.00 | 0.00 | 0.00 | 63 | 1004.2 |
| 20260504174120 | 70 | 157 | 1.7 | 1.7 | 0.00 | 0.00 | 0.00 | 65 | 1004.5 |
| 20260504173618 | 70 | 128 | 2.6 | 2.6 | 0.00 | 0.00 | 0.00 | 63 | 1004.8 |
| 20260504173115 | 70 | 159 | 0.9 | 0.9 | 0.00 | 0.00 | 0.00 | 66 | 1004.8 |
| 20260504172611 | 70 | 164 | 0.0 | 0.0 | 0.00 | 0.00 | 0.00 | 67 | 1004.6 |
| 20260504172108 | 70 | 163 | 0.9 | 0.9 | 0.00 | 0.00 | 0.00 | 66 | 1004.6 |
| 20260504171604 | 69 | 156 | 0.9 | 0.9 | 0.00 | 0.00 | 0.00 | 65 | 1004.6 |
| 20260504171102 | 69 | 164 | 0.9 | 0.9 | 0.00 | 0.00 | 0.00 | 68 | 1004.8 |
| 20260504170557 | 68 | 140 | 0.9 | 1.7 | 0.00 | 0.00 | 0.00 | 70 | 1004.8 |
| 20260504150941 | 63 | 133 | 0.9 | 1.7 | 0.00 | 0.00 | 0.00 | 70 | 1005.6 |
| 20260504150438 | 64 | 159 | 0.0 | 0.9 | 0.00 | 0.00 | 0.00 | 69 | 1005.5 |
| 20260504140904 | 64 | 162 | 0.9 | 0.9 | 0.00 | 0.00 | 0.00 | 66 | 1006.2 |
| 20260504140400 | 63 | 150 | 1.7 | 1.7 | 0.00 | 0.00 | 0.00 | 74 | 1006.1 |
| 20260504130325 | 57 | 159 | 0.9 | 0.9 | 0.00 | 0.00 | 0.00 | 76 | 1006.2 |
| 20260504120248 | 52 | 161 | 0.0 | 0.0 | 0.00 | 0.00 | 0.00 | 82 | 1006.3 |
| 20260504110716 | 48 | 160 | 0.0 | 0.0 | 0.00 | 0.00 | 0.00 | 84 | 1006.3 |
| 20260504110212 | 47 | 164 | 0.0 | 0.0 | 0.00 | 0.00 | 0.00 | 84 | 1006.2 |
| 20260504100136 | 44 | 160 | 0.0 | 0.0 | 0.00 | 0.00 | 0.00 | 88 | 1006.6 |
| 20260504081529 | 49 | 158 | 0.0 | 0.0 | 0.00 | 0.00 | 0.00 | 76 | 1007.2 |
| 20260504081025 | 49 | 166 | 0.9 | 0.9 | 0.00 | 0.00 | 0.00 | 77 | 1007.2 |
| 20260504080522 | 48 | 178 | 0.0 | 0.0 | 0.00 | 0.00 | 0.00 | 78 | 1007.2 |
| 20260504050334 | 50 | 167 | 0.0 | 0.0 | 0.00 | 0.00 | 0.00 | 73 | 1008.8 |
| 20260504045831 | 49 | 165 | 0.0 | 0.0 | 0.00 | 0.00 | 0.00 | 73 | 1008.8 |
| 20260504045326 | 48 | 162 | 0.0 | 0.0 | 0.00 | 0.00 | 0.00 | 76 | 1008.9 |
| 20260504044823 | 48 | 160 | 0.0 | 0.0 | 0.00 | 0.00 | 0.00 | 74 | 1009.1 |
| 20260504044321 | 49 | 160 | 0.0 | 0.0 | 0.00 | 0.00 | 0.00 | 75 | 1008.9 |
| 20260504043818 | 49 | 160 | 0.0 | 0.0 | 0.00 | 0.00 | 0.00 | 74 | 1009.0 |
| 20260504043315 | 49 | 166 | 0.0 | 0.0 | 0.00 | 0.00 | 0.00 | 73 | 1009.1 |
| 20260504042812 | 50 | 160 | 0.0 | 0.0 | 0.00 | 0.00 | 0.00 | 73 | 1009.3 |
| 20260504042308 | 51 | 158 | 0.0 | 0.0 | 0.00 | 0.00 | 0.00 | 69 | 1009.2 |
| 20260504041805 | 51 | 160 | 0.0 | 0.0 | 0.00 | 0.00 | 0.00 | 68 | 1009.1 |
| 20260504041301 | 52 | 160 | 0.0 | 0.0 | 0.00 | 0.00 | 0.00 | 68 | 1009.1 |
| 20260504040757 | 52 | 167 | 0.0 | 0.0 | 0.00 | 0.00 | 0.00 | 68 | 1009.2 |
| 20260504040255 | 52 | 164 | 0.0 | 0.0 | 0.00 | 0.00 | 0.00 | 68 | 1009.3 |
| 20260504035750 | 53 | 159 | 0.0 | 0.0 | 0.00 | 0.00 | 0.00 | 67 | 1009.4 |
| 20260504035248 | 53 | 160 | 0.0 | 0.0 | 0.00 | 0.00 | 0.00 | 66 | 1009.5 |
| 20260504034745 | 53 | 161 | 0.0 | 0.0 | 0.00 | 0.00 | 0.00 | 66 | 1009.4 |
| 20260504034242 | 53 | 160 | 0.0 | 0.0 | 0.00 | 0.00 | 0.00 | 65 | 1009.5 |
| 20260504033740 | 53 | 163 | 0.0 | 0.0 | 0.00 | 0.00 | 0.00 | 64 | 1009.6 |
| 20260504033237 | 53 | 160 | 0.0 | 0.0 | 0.00 | 0.00 | 0.00 | 66 | 1009.5 |
| 20260504032734 | 54 | 163 | 0.0 | 0.0 | 0.00 | 0.00 | 0.00 | 64 | 1009.5 |
| 20260504032231 | 54 | 162 | 0.0 | 0.0 | 0.00 | 0.00 | 0.00 | 64 | 1009.5 |
| 20260504031728 | 54 | 162 | 0.0 | 0.0 | 0.00 | 0.00 | 0.00 | 64 | 1009.5 |
| 20260504031226 | 54 | 163 | 0.0 | 0.0 | 0.00 | 0.00 | 0.00 | 63 | 1009.5 |
| 20260504030721 | 54 | 164 | 0.0 | 0.0 | 0.00 | 0.00 | 0.00 | 65 | 1009.6 |
| 20260504030219 | 54 | 169 | 0.0 | 0.0 | 0.00 | 0.00 | 0.00 | 63 | 1009.8 |
| 20260504025715 | 54 | 167 | 0.0 | 0.9 | 0.00 | 0.00 | 0.00 | 62 | 1009.8 |
| 20260504025212 | 54 | 162 | 0.0 | 0.0 | 0.00 | 0.00 | 0.00 | 63 | 1009.7 |
| 20260504024709 | 54 | 161 | 0.0 | 0.0 | 0.00 | 0.00 | 0.00 | 63 | 1009.9 |
| 20260504024205 | 54 | 163 | 0.0 | 0.0 | 0.00 | 0.00 | 0.00 | 62 | 1009.7 |
| 20260504023702 | 54 | 161 | 0.0 | 0.0 | 0.00 | 0.00 | 0.00 | 62 | 1009.8 |
| 20260504023158 | 54 | 161 | 0.0 | 0.0 | 0.00 | 0.00 | 0.00 | 61 | 1009.9 |
| 20260504022654 | 54 | 161 | 0.0 | 0.0 | 0.00 | 0.00 | 0.00 | 61 | 1009.9 |
| 20260504022150 | 55 | 161 | 0.0 | 0.0 | 0.00 | 0.00 | 0.00 | 61 | 1009.8 |
| 20260504021649 | 55 | 161 | 0.0 | 0.0 | 0.00 | 0.00 | 0.00 | 59 | 1009.8 |
| 20260504021145 | 55 | 160 | 0.0 | 0.0 | 0.00 | 0.00 | 0.00 | 59 | 1009.8 |
| 20260504020642 | 56 | 162 | 0.0 | 0.0 | 0.00 | 0.00 | 0.00 | 58 | 1010.0 |
| 20260504020138 | 55 | 172 | 0.0 | 0.0 | 0.00 | 0.00 | 0.00 | 57 | 1009.9 |
| 20260504015635 | 55 | 159 | 0.0 | 0.0 | 0.00 | 0.00 | 0.00 | 58 | 1009.8 |
| 20260504015131 | 55 | 161 | 0.0 | 0.0 | 0.00 | 0.00 | 0.00 | 58 | 1009.8 |
| 20260504014627 | 55 | 161 | 0.0 | 0.0 | 0.00 | 0.00 | 0.00 | 57 | 1009.7 |
| 20260504014124 | 55 | 165 | 0.0 | 0.0 | 0.00 | 0.00 | 0.00 | 57 | 1009.6 |
| 20260504013622 | 56 | 166 | 0.0 | 0.0 | 0.00 | 0.00 | 0.00 | 58 | 1009.6 |
| 20260504013119 | 56 | 167 | 0.0 | 0.0 | 0.00 | 0.00 | 0.00 | 55 | 1009.4 |
| 20260504012616 | 56 | 170 | 0.0 | 0.0 | 0.00 | 0.00 | 0.00 | 55 | 1009.4 |
| 20260504012114 | 56 | 161 | 0.0 | 0.0 | 0.00 | 0.00 | 0.00 | 57 | 1009.3 |
| 20260504011610 | 56 | 158 | 0.0 | 0.0 | 0.00 | 0.00 | 0.00 | 56 | 1009.6 |
| 20260504011107 | 56 | 161 | 0.0 | 0.0 | 0.00 | 0.00 | 0.00 | 55 | 1009.5 |
| 20260504010602 | 56 | 161 | 0.0 | 0.0 | 0.00 | 0.00 | 0.00 | 55 | 1009.4 |